2020/07/09 23:32:53+0000,-42.64,-47.25,-32.79,-49.05,-54.38,-19.24
2020/07/09 23:33:45+0000,-42.41,-45.74,-31.83,-49.24,-54.55,-56.63
2020/07/09 23:34:37+0000,-42.32,-43.50,-32.84,-49.11,-54.76,-56.77
2020/07/09 23:35:29+0000,-42.20,-44.13,-31.50,-48.19,-55.10,-23.43
2020/07/09 23:36:21+0000,-42.71,-44.57,-32.43,-49.22,-54.93,-19.32
2020/07/09 23:37:13+0000,-42.49,-44.51,-33.36,-49.07,-54.80,-57.24
2020/07/09 23:38:05+0000,-42.55,-44.88,-32.36,-49.45,-54.97,-56.94
2020/07/09 23:38:58+0000,-43.43,-44.95,-32.69,-48.86,-54.88,-20.36
2020/07/09 23:39:50+0000,-42.71,-44.80,-31.97,-48.18,-55.22,-17.36
2020/07/09 23:40:42+0000,-42.74,-44.81,-32.56,-48.12,-54.84,-57.34
2020/07/09 23:41:39+0000,-42.95,-46.89,-32.96,-48.59,-54.96,-57.03
2020/07/09 23:42:31+0000,-42.58,-45.95,-31.83,-48.26,-54.33,-57.06
2020/07/09 23:43:24+0000,-42.80,-43.14,-32.57,-48.46,-54.65,-57.48
2020/07/09 23:44:16+0000,-42.78,-43.91,-33.71,-48.72,-54.65,-57.08
2020/07/09 23:45:08+0000,-42.69,-44.22,-32.57,-48.94,-54.35,-56.68
2020/07/09 23:46:00+0000,-43.33,-46.03,-32.87,-48.97,-54.68,-57.44
2020/07/09 23:46:52+0000,-42.71,-44.82,-32.87,-48.11,-54.31,-57.60
2020/07/09 23:47:44+0000,-42.27,-44.55,-32.33,-26.47,-54.91,-57.31
2020/07/09 23:48:36+0000,-42.84,-44.45,-32.31,-26.95,-52.24,-56.96
2020/07/09 23:49:28+0000,-42.71,-44.33,-32.34,-48.59,-53.56,-57.37
2020/07/09 23:50:20+0000,-42.51,-45.23,-32.82,-48.44,-51.09,-57.33
2020/07/09 23:51:17+0000,-42.80,-44.75,-32.52,-26.84,-51.33,-56.87
2020/07/09 23:52:09+0000,-42.78,-45.42,-32.56,-47.42,-51.50,-57.05
2020/07/09 23:53:01+0000,-42.97,-45.05,-32.24,-47.26,-51.11,-57.25
2020/07/09 23:53:53+0000,-42.45,-45.09,-33.17,-48.68,-50.96,-56.75
2020/07/09 23:54:45+0000,-42.71,-44.87,-33.21,-48.34,-51.07,-56.89
2020/07/09 23:55:37+0000,-42.45,-46.05,-27.36,-48.86,-50.33,-57.53
2020/07/09 23:56:30+0000,-42.32,-44.84,-33.07,-48.87,-51.46,-57.03
2020/07/09 23:57:22+0000,-43.06,-45.25,-32.25,-49.17,-51.51,-57.06
2020/07/09 23:58:14+0000,-42.14,-44.66,-32.56,-48.45,-51.60,-57.01
2020/07/09 23:59:06+0000,-42.58,-45.52,-32.50,-49.41,-52.64,-56.42
2020/07/09 23:59:58+0000,-42.38,-44.69,-31.99,-26.96,-52.69,-57.01
2020/07/10 00:00:53+0000,-43.23,-46.23,-33.45,-27.06,-52.45,-57.36
2020/07/10 00:01:52+0000,-42.50,-46.15,-32.60,-27.04,-53.40,-57.21
2020/07/10 00:02:44+0000,-42.27,-44.73,-32.52,-48.22,-53.68,-57.02
2020/07/10 00:03:36+0000,-42.83,-46.20,-33.34,-48.38,-53.92,-57.64
2020/07/10 00:04:28+0000,-42.88,-45.82,-32.85,-27.05,-54.22,-56.95
2020/07/10 00:05:20+0000,-43.10,-45.30,-32.99,-27.37,-54.35,-57.16
2020/07/10 00:06:12+0000,-42.53,-45.16,-32.64,-47.59,-54.45,-57.34
2020/07/10 00:07:04+0000,-43.01,-45.22,-32.16,-48.90,-54.54,-56.77
2020/07/10 00:07:56+0000,-42.37,-45.56,-32.25,-27.45,-54.84,-57.06
2020/07/10 00:08:48+0000,-42.58,-44.63,-32.90,-48.38,-54.24,-57.28
2020/07/10 00:09:41+0000,-42.69,-45.02,-32.55,-48.80,-54.55,-56.77
2020/07/10 00:10:33+0000,-42.71,-45.35,-32.57,-47.90,-54.11,-56.79
2020/07/10 00:11:31+0000,-42.57,-45.08,-32.19,-45.03,-54.40,-56.58
2020/07/10 00:12:23+0000,-43.16,-46.03,-32.57,-63.60,-54.42,-56.82
2020/07/10 00:13:16+0000,-42.55,-46.64,-32.16,-48.62,-54.59,-56.76
2020/07/10 00:14:08+0000,-42.37,-45.39,-32.54,-64.43,-55.11,-57.09
2020/07/10 00:15:00+0000,-41.87,-46.55,-32.39,-45.58,-54.75,-56.80
2020/07/10 00:15:52+0000,-41.88,-46.62,-32.52,-63.57,-55.17,-56.89
2020/07/10 00:16:44+0000,-42.04,-46.10,-31.17,-47.81,-54.95,-56.67
2020/07/10 00:17:36+0000,-42.13,-46.41,-31.52,-65.98,-54.77,-56.99
2020/07/10 00:18:28+0000,-42.45,-45.40,-31.91,-64.58,-54.67,-56.97
2020/07/10 00:19:20+0000,-42.15,-46.21,-32.25,-47.58,-55.22,-56.89
2020/07/10 00:20:13+0000,-42.62,-46.56,-32.41,-59.98,-54.93,-56.78
2020/07/10 00:21:10+0000,-42.63,-45.89,-31.40,-66.88,-54.16,-57.11
2020/07/10 00:22:02+0000,-42.53,-45.54,-32.61,-45.34,-54.65,-57.14
2020/07/10 00:22:54+0000,-42.77,-45.48,-31.26,-63.41,-54.83,-56.61
2020/07/10 00:23:46+0000,-42.78,-46.64,-31.75,-46.35,-55.22,-56.32
2020/07/10 00:24:38+0000,-42.16,-47.68,-32.01,-64.94,-54.14,-56.61
2020/07/10 00:25:30+0000,-43.04,-47.81,-32.34,-45.89,-55.17,-56.72
2020/07/10 00:26:22+0000,-42.65,-47.22,-32.00,-63.22,-55.38,-57.30
2020/07/10 00:27:14+0000,-42.70,-46.52,-32.16,-46.41,-55.24,-56.63
2020/07/10 00:28:06+0000,-43.76,-50.13,-32.86,-47.27,-54.83,-57.18
2020/07/10 00:28:59+0000,-43.43,-47.60,-32.41,-45.82,-54.87,-57.03
2020/07/10 00:29:51+0000,-42.33,-47.21,-32.66,-36.88,-54.39,-56.82
2020/07/10 00:30:43+0000,-43.42,-47.69,-32.17,-47.06,-55.05,-56.22
2020/07/10 00:31:42+0000,-43.12,-47.17,-32.51,-47.35,-54.85,-56.89
2020/07/10 00:32:34+0000,-43.28,-47.14,-32.64,-48.73,-54.94,-56.89
2020/07/10 00:33:26+0000,-42.33,-46.41,-32.13,-48.65,-54.84,-56.99
2020/07/10 00:34:18+0000,-42.63,-47.28,-32.73,-47.62,-55.26,-57.15
2020/07/10 00:35:10+0000,-42.89,-47.35,-33.03,-64.36,-55.65,-57.33
2020/07/10 00:36:02+0000,-42.80,-47.37,-32.98,-48.63,-54.73,-57.38
2020/07/10 00:36:54+0000,-42.29,-46.66,-32.55,-61.12,-54.78,-56.84
2020/07/10 00:37:46+0000,-42.55,-47.47,-32.46,-44.88,-55.10,-56.89
2020/07/10 00:38:38+0000,-43.55,-47.58,-33.17,-64.03,-54.76,-57.33
2020/07/10 00:39:30+0000,-42.18,-47.20,-32.82,-48.69,-54.95,-57.20
2020/07/10 00:40:23+0000,-42.94,-47.39,-32.90,-66.16,-54.94,-56.90
2020/07/10 00:41:22+0000,-43.16,-47.12,-33.18,-48.85,-54.10,-57.03
2020/07/10 00:42:15+0000,-42.26,-47.66,-33.00,-44.08,-54.29,-57.10
2020/07/10 00:43:07+0000,-42.25,-47.38,-33.27,-43.74,-55.26,-57.16
2020/07/10 00:43:59+0000,-42.83,-47.31,-33.02,-48.24,-54.80,-57.20
2020/07/10 00:44:51+0000,-42.80,-46.77,-33.62,-47.53,-54.58,-57.16
2020/07/10 00:45:43+0000,-42.67,-47.79,-32.94,-47.21,-54.45,-56.88
2020/07/10 00:46:35+0000,-43.53,-47.40,-33.67,-48.60,-53.87,-57.53
2020/07/10 00:47:27+0000,-42.58,-46.71,-33.40,-49.35,-54.72,-57.48
2020/07/10 00:48:19+0000,-42.55,-46.58,-33.04,-48.85,-54.57,-57.14
2020/07/10 00:49:11+0000,-42.41,-46.25,-33.23,-47.42,-54.64,-56.71
2020/07/10 00:50:04+0000,-42.32,-47.22,-33.89,-48.63,-54.08,-57.82
2020/07/10 00:51:02+0000,-42.00,-46.85,-33.30,-47.53,-54.37,-57.41
2020/07/10 00:51:54+0000,-42.26,-47.32,-33.62,-47.93,-53.91,-56.60
2020/07/10 00:52:46+0000,-42.60,-46.72,-33.96,-44.44,-54.10,-56.85
2020/07/10 00:53:38+0000,-42.73,-46.24,-33.63,-43.51,-54.53,-57.32
2020/07/10 00:54:30+0000,-42.42,-46.95,-33.95,-48.89,-54.45,-57.09
2020/07/10 00:55:22+0000,-42.19,-47.08,-34.21,-49.51,-54.62,-57.75
2020/07/10 00:56:14+0000,-41.97,-46.59,-33.45,-45.35,-54.66,-57.39
2020/07/10 00:57:06+0000,-41.74,-46.82,-33.81,-48.86,-54.67,-57.32
2020/07/10 00:57:59+0000,-39.48,-46.97,-33.17,-48.17,-54.86,-57.48
2020/07/10 00:58:51+0000,-42.11,-47.41,-33.28,-47.80,-54.83,-57.04
2020/07/10 00:59:43+0000,-42.34,-47.55,-33.51,-45.87,-54.94,-57.17
2020/07/10 01:00:35+0000,-42.07,-47.51,-33.60,-49.26,-55.28,-56.95
2020/07/10 01:01:35+0000,-42.20,-46.88,-34.46,-45.97,-54.52,-57.02
2020/07/10 01:02:27+0000,-42.13,-45.41,-33.57,-49.21,-54.05,-57.00
2020/07/10 01:03:19+0000,-41.89,-47.65,-33.37,-49.17,-54.82,-56.71
2020/07/10 01:04:11+0000,-41.93,-45.60,-34.20,-45.17,-54.46,-56.85
2020/07/10 01:05:03+0000,-41.86,-46.86,-33.95,-49.79,-54.80,-57.01
2020/07/10 01:05:55+0000,-41.96,-45.77,-33.53,-47.78,-54.34,-56.98
2020/07/10 01:06:47+0000,-42.15,-46.28,-33.92,-48.44,-54.86,-57.32
2020/07/10 01:07:40+0000,-42.44,-46.12,-33.66,-45.06,-54.20,-56.92
2020/07/10 01:08:32+0000,-41.52,-46.11,-33.74,-49.53,-54.82,-56.47
2020/07/10 01:09:24+0000,-41.80,-46.11,-33.96,-48.99,-54.81,-56.86
2020/07/10 01:10:16+0000,-41.76,-46.17,-33.67,-48.11,-54.93,-56.95
2020/07/10 01:11:23+0000,-42.36,-46.29,-34.28,-49.08,-54.77,-56.98
2020/07/10 01:12:15+0000,-42.42,-47.01,-34.20,-45.44,-54.79,-56.83
2020/07/10 01:13:07+0000,-41.86,-46.80,-34.02,-45.74,-54.52,-56.83
2020/07/10 01:13:59+0000,-41.70,-46.24,-33.80,-49.50,-55.04,-57.44
2020/07/10 01:14:51+0000,-41.90,-48.69,-33.25,-50.19,-54.37,-57.04
2020/07/10 01:15:43+0000,-42.20,-46.22,-34.12,-46.69,-54.48,-56.43
2020/07/10 01:16:35+0000,-41.76,-46.94,-33.64,-46.09,-55.62,-57.05
2020/07/10 01:17:27+0000,-42.65,-46.44,-33.65,-49.15,-54.71,-57.58
2020/07/10 01:18:19+0000,-42.27,-46.81,-33.34,-49.25,-54.54,-56.95
2020/07/10 01:19:11+0000,-42.33,-47.06,-32.98,-47.83,-53.35,-57.08
2020/07/10 01:20:04+0000,-42.47,-46.89,-33.83,-49.02,-54.31,-57.28
2020/07/10 01:21:01+0000,-41.77,-46.99,-33.37,-49.60,-54.36,-57.22
2020/07/10 01:21:53+0000,-42.28,-46.23,-33.43,-48.59,-54.53,-57.45
2020/07/10 01:22:45+0000,-41.35,-46.66,-34.07,-45.48,-54.59,-57.68
2020/07/10 01:23:37+0000,-41.79,-47.79,-33.98,-45.65,-55.34,-57.53
2020/07/10 01:24:29+0000,-42.11,-46.37,-33.59,-49.43,-54.93,-56.84
2020/07/10 01:25:21+0000,-42.31,-45.37,-33.28,-48.86,-53.53,-56.73
2020/07/10 01:26:14+0000,-41.87,-46.66,-33.38,-48.04,-54.68,-56.81
2020/07/10 01:27:06+0000,-42.46,-46.73,-32.85,-48.23,-54.84,-56.57
2020/07/10 01:27:58+0000,-41.73,-46.99,-33.18,-48.56,-55.06,-56.83
2020/07/10 01:28:50+0000,-42.05,-46.77,-33.10,-49.28,-54.82,-57.49
2020/07/10 01:29:43+0000,-41.81,-46.81,-32.96,-45.53,-55.65,-57.38
2020/07/10 01:30:35+0000,-41.43,-46.36,-33.70,-45.93,-55.16,-56.70
2020/07/10 01:31:33+0000,-41.52,-46.83,-33.36,-48.26,-53.78,-56.79
2020/07/10 01:32:25+0000,-41.12,-46.33,-33.37,-48.27,-54.33,-57.62
2020/07/10 01:33:17+0000,-41.62,-46.43,-33.79,-45.74,-53.03,-57.44
2020/07/10 01:34:09+0000,-41.16,-46.09,-33.59,-45.47,-52.17,-57.31
2020/07/10 01:35:01+0000,-42.07,-48.93,-33.59,-49.02,-54.94,-57.07
2020/07/10 01:35:53+0000,-41.60,-49.06,-33.49,-48.88,-52.43,-57.18
2020/07/10 01:36:45+0000,-41.71,-48.06,-33.77,-44.49,-54.32,-57.36
2020/07/10 01:37:37+0000,-41.94,-48.48,-33.79,-48.33,-54.43,-57.30
2020/07/10 01:38:29+0000,-42.01,-48.99,-33.24,-48.90,-53.80,-57.07
2020/07/10 01:39:21+0000,-41.89,-48.39,-33.39,-48.99,-54.50,-57.24
2020/07/10 01:40:15+0000,-41.85,-48.19,-33.64,-45.91,-53.73,-57.54
2020/07/10 01:41:12+0000,-42.19,-48.18,-33.87,-46.15,-54.54,-57.45
2020/07/10 01:42:04+0000,-42.07,-48.34,-33.11,-49.56,-54.58,-56.76
2020/07/10 01:42:56+0000,-42.02,-48.69,-33.59,-48.60,-54.32,-57.25
2020/07/10 01:43:48+0000,-41.93,-47.98,-32.99,-48.44,-54.73,-57.14
2020/07/10 01:44:40+0000,-42.61,-48.48,-32.91,-45.41,-54.27,-57.17
2020/07/10 01:45:32+0000,-41.87,-47.60,-33.50,-48.58,-52.18,-56.95
2020/07/10 01:46:24+0000,-41.99,-46.80,-32.84,-48.73,-54.76,-57.26
2020/07/10 01:47:17+0000,-42.24,-48.51,-33.29,-45.77,-54.25,-57.30
2020/07/10 01:48:09+0000,-42.07,-49.13,-34.06,-45.58,-54.75,-57.13
2020/07/10 01:49:01+0000,-42.32,-48.82,-32.80,-49.12,-54.25,-56.88
2020/07/10 01:49:53+0000,-42.12,-48.06,-32.95,-48.30,-54.00,-57.79
2020/07/10 01:50:45+0000,-42.46,-48.49,-33.18,-45.20,-54.43,-57.17
2020/07/10 01:51:50+0000,-41.36,-48.40,-33.52,-48.47,-51.72,-56.81
2020/07/10 01:52:42+0000,-42.15,-48.27,-33.52,-45.04,-51.32,-57.26
2020/07/10 01:53:34+0000,-42.39,-48.32,-32.62,-46.89,-52.95,-57.14
2020/07/10 01:54:26+0000,-42.31,-48.12,-33.42,-48.06,-54.43,-56.93
2020/07/10 01:55:18+0000,-41.17,-49.70,-33.89,-47.90,-54.13,-56.46
2020/07/10 01:56:10+0000,-42.71,-49.07,-33.41,-47.60,-54.35,-56.94
2020/07/10 01:57:02+0000,-42.23,-48.77,-33.41,-47.87,-54.05,-57.31
2020/07/10 01:57:54+0000,-41.88,-49.27,-33.82,-49.07,-53.87,-56.99
2020/07/10 01:58:46+0000,-42.17,-49.38,-33.35,-49.00,-53.97,-57.38
2020/07/10 01:59:38+0000,-42.35,-47.52,-33.38,-49.17,-54.19,-57.28
2020/07/10 02:00:31+0000,-42.06,-48.36,-33.51,-47.47,-54.43,-56.18
2020/07/10 02:01:30+0000,-42.30,-47.64,-33.04,-48.41,-54.25,-57.17
2020/07/10 02:02:22+0000,-42.43,-47.87,-32.55,-47.70,-54.23,-56.73
2020/07/10 02:03:14+0000,-41.85,-48.74,-32.47,-48.11,-52.69,-57.06
2020/07/10 02:04:06+0000,-42.48,-50.33,-32.47,-46.02,-53.19,-57.31
2020/07/10 02:04:58+0000,-42.58,-44.83,-32.61,-49.06,-53.08,-57.00
2020/07/10 02:05:50+0000,-39.59,-45.68,-32.91,-49.86,-54.67,-57.27
2020/07/10 02:06:42+0000,-43.01,-45.80,-33.25,-50.09,-54.21,-57.21
2020/07/10 02:07:34+0000,-42.53,-46.17,-32.79,-49.08,-53.22,-56.97
2020/07/10 02:08:26+0000,-42.23,-46.10,-32.75,-47.43,-54.51,-56.90
2020/07/10 02:09:18+0000,-41.55,-45.14,-32.08,-48.51,-53.86,-57.00
2020/07/10 02:10:11+0000,-42.33,-45.99,-32.27,-45.11,-54.07,-57.01
2020/07/10 02:11:10+0000,-42.10,-46.54,-33.26,-46.23,-54.25,-57.42
2020/07/10 02:12:02+0000,-42.47,-45.89,-32.89,-48.37,-54.25,-56.63
2020/07/10 02:12:54+0000,-41.17,-46.65,-32.45,-48.42,-54.91,-56.86
2020/07/10 02:13:46+0000,-40.93,-45.56,-32.80,-48.34,-53.60,-56.90
2020/07/10 02:14:38+0000,-41.24,-46.14,-33.14,-48.52,-54.50,-57.09
2020/07/10 02:15:30+0000,-40.48,-45.93,-32.60,-49.00,-53.43,-57.09
2020/07/10 02:16:22+0000,-40.08,-47.20,-34.34,-49.52,-53.92,-56.89
2020/07/10 02:17:14+0000,-42.04,-46.50,-33.98,-49.08,-53.91,-56.98
2020/07/10 02:18:06+0000,-41.46,-45.81,-33.90,-48.50,-53.24,-57.28
2020/07/10 02:18:59+0000,-42.10,-45.30,-33.71,-48.65,-53.97,-56.25
2020/07/10 02:19:51+0000,-40.55,-47.40,-32.77,-49.14,-54.62,-56.36
2020/07/10 02:20:43+0000,-41.87,-45.89,-32.64,-48.08,-54.53,-56.91
2020/07/10 02:21:49+0000,-41.75,-46.89,-32.15,-50.01,-54.59,-56.89
2020/07/10 02:22:41+0000,-41.91,-46.75,-32.79,-49.11,-54.44,-57.49
2020/07/10 02:23:33+0000,-39.30,-45.14,-32.95,-48.35,-54.42,-57.18
2020/07/10 02:24:25+0000,-41.58,-45.93,-33.45,-49.51,-55.27,-57.44
2020/07/10 02:25:17+0000,-42.00,-46.65,-32.84,-49.56,-54.81,-56.83
2020/07/10 02:26:09+0000,-41.28,-46.05,-32.78,-49.25,-54.75,-56.81
2020/07/10 02:27:01+0000,-40.01,-46.45,-33.16,-49.47,-54.70,-57.50
2020/07/10 02:27:53+0000,-41.69,-46.29,-32.94,-47.81,-54.36,-57.08
2020/07/10 02:28:45+0000,-40.16,-46.50,-32.83,-47.63,-54.67,-57.17
2020/07/10 02:29:37+0000,-41.50,-45.35,-33.36,-48.79,-54.99,-57.53
2020/07/10 02:30:30+0000,-41.02,-45.57,-32.81,-49.56,-54.79,-57.11
2020/07/10 02:31:30+0000,-41.40,-46.09,-32.94,-49.59,-54.34,-56.75
2020/07/10 02:32:22+0000,-42.03,-46.57,-32.88,-46.61,-54.72,-57.16
2020/07/10 02:33:14+0000,-41.22,-47.12,-32.95,-47.99,-55.43,-56.96
2020/07/10 02:34:06+0000,-40.15,-47.07,-32.77,-48.80,-55.01,-56.18
2020/07/10 02:34:58+0000,-41.23,-45.78,-33.54,-49.22,-54.97,-56.99
2020/07/10 02:35:50+0000,-42.71,-44.55,-32.95,-47.27,-55.05,-56.94
2020/07/10 02:36:42+0000,-43.17,-45.77,-33.18,-48.83,-54.82,-57.15
2020/07/10 02:37:34+0000,-42.14,-45.95,-32.58,-48.99,-55.33,-57.06
2020/07/10 02:38:26+0000,-41.47,-46.93,-32.43,-49.00,-55.28,-56.64
2020/07/10 02:39:18+0000,-42.06,-46.62,-32.40,-48.46,-54.68,-57.23
2020/07/10 02:40:11+0000,-41.40,-45.86,-32.21,-49.10,-54.71,-57.03
2020/07/10 02:41:09+0000,-40.80,-45.85,-32.03,-48.42,-55.22,-56.98
2020/07/10 02:42:02+0000,-40.67,-45.41,-32.70,-48.25,-55.30,-57.29
2020/07/10 02:42:54+0000,-41.95,-46.65,-32.31,-49.31,-54.50,-57.12
2020/07/10 02:43:46+0000,-41.88,-46.55,-32.43,-48.91,-54.83,-57.62
2020/07/10 02:44:38+0000,-41.00,-47.61,-32.05,-48.65,-52.17,-57.03
2020/07/10 02:45:30+0000,-41.52,-45.86,-32.17,-48.63,-55.07,-57.16
2020/07/10 02:46:22+0000,-41.61,-46.66,-32.82,-47.95,-54.50,-57.32
2020/07/10 02:47:14+0000,-41.34,-45.86,-32.42,-48.81,-54.71,-56.94
2020/07/10 02:48:06+0000,-41.42,-46.37,-32.20,-46.95,-54.54,-56.70
2020/07/10 02:48:58+0000,-40.29,-45.73,-33.04,-48.12,-54.44,-56.67
2020/07/10 02:49:51+0000,-39.14,-46.89,-32.98,-49.50,-55.29,-57.25
2020/07/10 02:50:43+0000,-41.55,-46.39,-32.36,-47.87,-54.67,-56.49
2020/07/10 02:51:45+0000,-40.86,-45.95,-32.44,-47.48,-51.65,-57.18
2020/07/10 02:52:37+0000,-41.39,-46.90,-32.22,-48.17,-54.49,-57.09
2020/07/10 02:53:29+0000,-40.87,-45.91,-32.24,-47.34,-54.45,-57.07
2020/07/10 02:54:21+0000,-42.04,-46.34,-32.04,-48.58,-54.95,-56.45
2020/07/10 02:55:13+0000,-40.99,-46.62,-32.96,-47.77,-55.00,-57.08
2020/07/10 02:56:05+0000,-35.88,-46.57,-32.41,-48.29,-54.73,-56.85
2020/07/10 02:56:58+0000,-41.83,-46.44,-32.55,-47.05,-54.66,-56.58
2020/07/10 02:57:50+0000,-40.47,-45.87,-31.57,-47.80,-54.34,-56.72
2020/07/10 02:58:42+0000,-40.82,-46.47,-31.83,-48.29,-54.59,-56.76
2020/07/10 02:59:34+0000,-41.56,-45.94,-31.99,-47.74,-54.63,-56.83
2020/07/10 03:00:26+0000,-41.01,-46.35,-31.94,-47.71,-54.22,-57.27
2020/07/10 03:01:25+0000,-40.96,-46.18,-31.98,-46.67,-54.68,-56.65
2020/07/10 03:02:17+0000,-41.71,-46.05,-31.91,-48.64,-54.77,-56.67
2020/07/10 03:03:09+0000,-40.92,-46.30,-32.13,-48.24,-54.34,-56.64
2020/07/10 03:04:01+0000,-41.45,-46.92,-32.52,-48.37,-54.66,-56.89
2020/07/10 03:04:53+0000,-40.52,-46.14,-31.74,-48.71,-54.09,-56.86
2020/07/10 03:05:45+0000,-40.74,-46.30,-32.12,-48.41,-53.07,-57.60
2020/07/10 03:06:37+0000,-40.22,-46.25,-31.97,-47.09,-52.86,-57.00
2020/07/10 03:07:29+0000,-40.61,-46.35,-32.59,-49.48,-51.57,-56.68
2020/07/10 03:08:21+0000,-40.64,-47.94,-32.48,-48.57,-50.89,-57.05
2020/07/10 03:09:14+0000,-40.78,-44.79,-33.11,-49.16,-53.36,-56.64
2020/07/10 03:10:06+0000,-40.72,-46.82,-33.52,-49.33,-52.06,-57.06
2020/07/10 03:11:05+0000,-39.43,-47.71,-33.68,-49.36,-54.95,-56.98
2020/07/10 03:11:57+0000,-40.91,-46.13,-34.03,-49.21,-54.93,-56.25
2020/07/10 03:12:49+0000,-40.13,-47.87,-33.54,-49.63,-55.16,-56.97
2020/07/10 03:13:41+0000,-40.56,-48.14,-34.43,-49.39,-55.46,-56.80
2020/07/10 03:14:33+0000,-40.00,-46.07,-33.82,-49.76,-54.92,-57.33
2020/07/10 03:15:25+0000,-38.80,-45.43,-32.67,-48.47,-55.00,-56.83
2020/07/10 03:16:18+0000,-40.00,-45.76,-33.01,-48.87,-55.03,-56.48
2020/07/10 03:17:10+0000,-40.27,-46.64,-32.31,-48.80,-54.73,-57.22
2020/07/10 03:18:02+0000,-41.22,-45.89,-32.62,-48.43,-55.44,-56.61
2020/07/10 03:18:54+0000,-40.22,-44.97,-33.23,-48.93,-55.53,-56.99
2020/07/10 03:19:46+0000,-40.00,-45.36,-32.61,-47.96,-55.06,-57.15
2020/07/10 03:20:38+0000,-40.40,-43.67,-33.31,-47.49,-55.50,-56.84
2020/07/10 03:21:35+0000,-41.38,-47.37,-33.49,-47.62,-54.89,-56.99
2020/07/10 03:22:27+0000,-40.72,-44.37,-32.67,-49.52,-55.75,-56.63
2020/07/10 03:23:20+0000,-39.38,-46.81,-32.43,-46.54,-55.24,-56.59
2020/07/10 03:24:12+0000,-37.96,-43.43,-33.41,-46.73,-55.34,-56.47
2020/07/10 03:25:04+0000,-36.11,-42.66,-33.13,-47.19,-53.49,-56.64
2020/07/10 03:25:56+0000,-36.49,-42.16,-32.65,-46.37,-54.96,-56.96
2020/07/10 03:26:48+0000,-41.15,-44.27,-32.56,-49.24,-55.14,-57.01
2020/07/10 03:27:40+0000,-41.47,-44.66,-33.29,-48.14,-55.43,-56.81
2020/07/10 03:28:32+0000,-41.59,-41.89,-33.18,-48.48,-55.00,-56.80
2020/07/10 03:29:24+0000,-40.76,-42.39,-32.39,-48.13,-55.06,-57.37
2020/07/10 03:30:16+0000,-40.77,-43.00,-33.05,-47.36,-54.64,-57.00
2020/07/10 03:31:16+0000,-41.42,-43.01,-32.87,-48.49,-54.79,-56.52
2020/07/10 03:32:08+0000,-40.32,-43.54,-33.75,-49.04,-54.93,-57.12
2020/07/10 03:33:00+0000,-41.76,-42.90,-33.23,-47.26,-54.71,-57.02
2020/07/10 03:33:52+0000,-40.83,-43.96,-32.98,-48.63,-54.98,-56.98
2020/07/10 03:34:44+0000,-42.02,-43.73,-33.01,-47.31,-55.43,-56.64
2020/07/10 03:35:36+0000,-41.43,-44.19,-32.76,-47.96,-54.87,-56.47
2020/07/10 03:36:28+0000,-41.11,-46.17,-32.97,-47.83,-54.37,-57.12
2020/07/10 03:37:20+0000,-41.06,-47.93,-32.57,-48.65,-54.92,-56.22
2020/07/10 03:38:12+0000,-40.73,-44.53,-33.66,-48.95,-53.83,-56.77
2020/07/10 03:39:05+0000,-34.19,-44.19,-33.56,-48.00,-54.43,-56.17
2020/07/10 03:39:57+0000,-41.06,-43.52,-33.12,-48.32,-55.11,-56.40
2020/07/10 03:40:49+0000,-40.81,-45.08,-32.75,-48.80,-54.86,-56.76
2020/07/10 03:41:46+0000,-40.62,-45.16,-33.81,-47.79,-55.17,-55.98
2020/07/10 03:42:38+0000,-41.04,-47.51,-33.24,-48.74,-54.51,-56.48
2020/07/10 03:43:31+0000,-42.08,-45.01,-33.50,-48.61,-55.22,-56.52
2020/07/10 03:44:23+0000,-41.05,-45.66,-32.45,-47.66,-54.33,-56.74
2020/07/10 03:45:15+0000,-39.95,-44.21,-32.50,-47.71,-54.70,-56.46
2020/07/10 03:46:07+0000,-40.92,-46.38,-32.67,-47.65,-54.00,-56.66
2020/07/10 03:46:59+0000,-40.87,-44.68,-32.66,-48.14,-54.39,-56.47
2020/07/10 03:47:51+0000,-40.03,-45.84,-32.81,-47.67,-54.20,-56.75
2020/07/10 03:48:43+0000,-40.04,-45.35,-32.72,-47.04,-54.21,-56.97
2020/07/10 03:49:35+0000,-40.43,-45.71,-33.03,-47.01,-54.19,-57.02
2020/07/10 03:50:27+0000,-40.47,-43.56,-32.79,-47.18,-54.71,-57.11
2020/07/10 03:51:25+0000,-39.96,-42.90,-32.01,-47.25,-54.32,-56.96
2020/07/10 03:52:17+0000,-40.73,-44.86,-32.42,-46.84,-54.82,-56.32
2020/07/10 03:53:09+0000,-36.22,-45.33,-32.68,-47.80,-54.87,-57.29
2020/07/10 03:54:01+0000,-41.48,-44.28,-32.61,-49.12,-55.07,-56.21
2020/07/10 03:54:53+0000,-40.43,-45.35,-32.50,-48.19,-54.93,-56.88
2020/07/10 03:55:45+0000,-41.12,-44.47,-32.39,-46.87,-54.92,-56.96
2020/07/10 03:56:37+0000,-40.34,-45.38,-32.57,-46.36,-54.75,-56.37
2020/07/10 03:57:29+0000,-40.77,-44.55,-32.32,-48.92,-54.70,-56.47
2020/07/10 03:58:21+0000,-40.48,-46.65,-32.78,-48.75,-55.01,-56.87
2020/07/10 03:59:13+0000,-40.32,-45.17,-32.55,-48.02,-54.25,-57.00
2020/07/10 04:00:06+0000,-40.52,-46.97,-32.51,-49.20,-54.57,-56.65
2020/07/10 04:01:04+0000,-40.48,-45.52,-32.77,-49.86,-53.75,-57.37
2020/07/10 04:01:56+0000,-39.16,-43.85,-32.65,-48.12,-54.02,-56.82
2020/07/10 04:02:48+0000,-37.89,-45.32,-32.37,-49.29,-54.54,-57.31
2020/07/10 04:03:40+0000,-35.83,-46.08,-32.78,-48.18,-55.17,-56.78
2020/07/10 04:04:33+0000,-34.98,-46.10,-32.94,-49.57,-54.56,-56.83
2020/07/10 04:05:25+0000,-40.61,-44.79,-32.68,-48.35,-54.30,-56.84
2020/07/10 04:06:17+0000,-41.44,-45.05,-33.10,-47.98,-54.29,-57.09
2020/07/10 04:07:09+0000,-39.67,-43.74,-33.13,-49.15,-54.51,-57.29
2020/07/10 04:08:01+0000,-39.17,-45.32,-32.34,-49.30,-54.47,-56.96
2020/07/10 04:08:53+0000,-40.55,-45.47,-32.90,-49.20,-54.65,-57.18
2020/07/10 04:09:45+0000,-38.76,-44.84,-33.18,-47.96,-53.15,-56.49
2020/07/10 04:10:37+0000,-37.90,-44.46,-32.45,-48.61,-54.18,-56.73
2020/07/10 04:11:35+0000,-37.79,-44.79,-31.74,-49.60,-53.93,-56.86
2020/07/10 04:12:27+0000,-41.25,-42.93,-32.67,-48.46,-54.09,-56.99
2020/07/10 04:13:19+0000,-39.46,-44.66,-32.89,-49.22,-54.21,-56.95
2020/07/10 04:14:11+0000,-39.89,-45.26,-31.89,-47.67,-53.85,-56.80
2020/07/10 04:15:03+0000,-39.80,-45.50,-31.66,-48.85,-54.19,-56.86
2020/07/10 04:15:55+0000,-40.01,-43.07,-32.83,-48.92,-54.71,-56.83
2020/07/10 04:16:47+0000,-41.04,-44.91,-32.57,-48.73,-54.98,-57.03
2020/07/10 04:17:39+0000,-40.73,-45.10,-32.14,-49.41,-54.89,-56.87
2020/07/10 04:18:31+0000,-38.91,-43.77,-33.25,-48.91,-54.58,-57.44
2020/07/10 04:19:23+0000,-38.77,-44.58,-33.45,-49.45,-54.65,-56.67
2020/07/10 04:20:16+0000,-38.56,-45.05,-33.28,-49.05,-54.25,-57.17
2020/07/10 04:21:13+0000,-38.97,-43.46,-33.45,-49.11,-54.27,-57.25
2020/07/10 04:22:05+0000,-38.62,-46.36,-32.37,-48.90,-54.44,-57.17
2020/07/10 04:22:57+0000,-40.80,-44.48,-33.51,-49.60,-54.27,-56.83
2020/07/10 04:23:49+0000,-40.73,-43.27,-33.97,-50.20,-54.62,-57.04
2020/07/10 04:24:41+0000,-38.95,-43.98,-33.08,-49.63,-54.71,-57.31
2020/07/10 04:25:33+0000,-36.46,-43.49,-33.33,-49.85,-53.87,-56.95
2020/07/10 04:26:25+0000,-40.75,-44.53,-34.06,-48.79,-53.89,-57.20
2020/07/10 04:27:17+0000,-39.94,-44.12,-33.75,-48.94,-53.86,-56.48
2020/07/10 04:28:09+0000,-40.77,-43.33,-32.77,-49.71,-53.76,-57.09
2020/07/10 04:29:02+0000,-40.73,-44.81,-33.56,-50.17,-53.90,-56.88
2020/07/10 04:29:54+0000,-38.17,-44.88,-34.24,-50.34,-53.64,-56.91
2020/07/10 04:30:46+0000,-39.96,-43.75,-34.61,-49.79,-53.70,-57.16
2020/07/10 04:31:44+0000,-39.04,-44.60,-34.39,-49.38,-54.44,-56.71
2020/07/10 04:32:36+0000,-39.98,-45.27,-34.80,-48.94,-54.15,-57.19
2020/07/10 04:33:28+0000,-37.71,-43.95,-34.06,-48.83,-54.34,-57.15
2020/07/10 04:34:20+0000,-40.04,-45.69,-33.68,-49.20,-54.23,-57.26
2020/07/10 04:35:12+0000,-40.67,-44.01,-34.00,-49.34,-54.19,-57.30
2020/07/10 04:36:04+0000,-41.38,-44.66,-33.84,-49.71,-53.85,-56.82
2020/07/10 04:36:56+0000,-35.08,-45.11,-34.38,-49.84,-54.13,-57.13
2020/07/10 04:37:48+0000,-39.36,-45.25,-34.48,-50.09,-53.25,-56.99
2020/07/10 04:38:40+0000,-37.99,-43.83,-34.29,-49.03,-54.38,-56.96
2020/07/10 04:39:32+0000,-41.26,-44.88,-33.81,-49.87,-54.61,-57.00
2020/07/10 04:40:25+0000,-38.25,-44.04,-34.33,-49.02,-54.23,-57.24
2020/07/10 04:41:23+0000,-39.78,-45.71,-34.66,-49.52,-51.84,-57.00
2020/07/10 04:42:15+0000,-40.60,-44.42,-33.92,-48.91,-50.59,-56.90
2020/07/10 04:43:07+0000,-39.43,-45.56,-33.86,-48.60,-54.67,-57.41
2020/07/10 04:43:59+0000,-39.50,-43.70,-34.10,-49.46,-54.52,-57.15
2020/07/10 04:44:51+0000,-39.03,-46.71,-33.95,-49.96,-54.39,-57.50
2020/07/10 04:45:43+0000,-35.00,-45.20,-34.24,-49.48,-53.96,-56.93
2020/07/10 04:46:35+0000,-38.92,-44.89,-33.05,-48.85,-51.72,-57.21